sat.trackr.live / text

‹ back to catalog

STARLINK-30404

NORAD 57853 · 2023-141P

PAYLOAD ACTIVE UNKNOWN

§ Identity

Operator
Country
US
Launch date
2023-09-12
Launch site
AFWTR
Launch vehicle
Mass (kg)
RCS (m²)

Purposes: comms

External: N2YO · Heavens-Above · Gunter

§ Orbital elements

Epoch: 2026-09-19T23:54:33.576480Z

Period
93.85 min
Inclination
53.1595°
Eccentricity
0.0000910
Mean motion
15.34387776 rev/d
Perigee alt
462.1 km
Apogee alt
463.4 km
Semi-major
6,840.9 km
B*
5.4475e-5
RAAN
99.7132°
Arg perigee
100.1114°
Mean anomaly
259.9991°
Rev number
17,010

§ Raw data

STARLINK-304041 57853U 23141P   26262.99622195  .00001464  00000+0  54475-4 0  99932 57853  53.1595  99.7132 0000910 100.1114 259.9991 15.34387776170101

JSON: /api/v1/satellites/57853 · /tle

For live sub-satellite position, see the globe view (requires WebGL).

§ Visibility from observer

Set your observer location to see the next 7 days of passes ≥ 10°. The values pass through the URL so the page stays shareable.

No JS? Fill the form by hand. The geolocation button needs JavaScript.